Snowfall_Accumulation
0.0 0.0 0.0 0.0 0.0 0.0 0.0 0.0 0.0 0.0 0.0 0.0 0.0 0.0 0.0 0.0 0.0 0.0 0.0 0.0 0.0 0.0 0.0 0.0 0.0 0.0 0.0 0.0 0.0 0.0 0.0 0.0 0.0 0.0 0.0 0.0 0.0 0.0 0.0 0.0 0.0 0.0 0.0 0.0
0.0 0.0 0.0 0.0 0.0 0.0 0.0 0.0 0.0 0.0 0.0 0.0 0.0 0.0 0.0 0.0 0.0 0.0 0.0 0.0 0.0 0.0 0.0 0.0 0.0 0.0 0.0 0.0 0.0 0.0 0.0 0.0 0.0 0.0 0.0 0.0 0.0 0.0 0.0 0.0 0.0 0.0 0.0 0.0
0.0 0.0 0.0 0.0 0.0 0.0 0.0 0.0 0.0 0.0 0.0 0.0 0.0 0.0 0.0 0.0 0.0 0.0 0.0 0.0 0.0 0.0 0.0 0.0 0.0 0.0 0.0 0.0 0.0 0.0 0.0 0.0 0.0 0.0 0.0 0.0 0.0 0.0 0.0 0.0 0.0 0.0 0.0 0.0
0.0 0.0 0.0 0.0 0.0 0.0 0.0 0.0 0.0 0.0 0.0 0.0 0.0 0.0 0.0 0.0 0.0 0.0 0.0 0.0 0.0 0.0 0.0 0.0 0.0 0.0 0.0 0.0 0.0 0.0 0.0 0.0 0.0 0.0 0.0 0.0 0.0 0.0 0.0 0.0 0.0 0.0 0.0 0.0
0.0 0.0 0.0 0.0 0.0 0.0 0.0 0.0 0.0 0.0 0.0 0.0 0.0 0.0 0.0 0.0 0.0 0.0 0.0 0.0 0.0 0.0 0.0 0.0 0.0 0.0 0.0 0.0 0.0 0.0 0.0 0.0 0.0 0.0 0.0 0.0 0.0 0.0 0.0 0.0 0.0 0.0 0.0 0.0
0.0 0.0 0.0 0.0 0.0 0.0 0.0 0.0 0.0 0.0 0.0 0.5 0.0 0.0 0.0 0.0 0.0 0.0 0.0 0.0 0.0 0.0 0.0 0.0 0.0 0.0 0.0 0.0 0.0 0.0 0.0 0.0 0.0 0.0 0.0 0.0 0.0 0.0 0.0 0.0 0.0 0.0 0.0 0.0
0.0 0.0 0.0 0.0 0.0 0.0 0.0 0.1 1.2 0.9 0.7 0.0 0.0 0.0 0.0 0.0 0.0 0.0 0.0 0.0 0.0 0.0 0.0 0.0 0.0 0.0 0.0 0.0 0.0 0.0 0.0 0.0 0.0 0.0 0.0 0.0 0.0 0.0 0.0 0.0 0.0 0.0 0.0 0.0
0.2 0.3 0.0 0.0 0.0 0.0 0.0 0.0 1.0 1.8 0.4 0.4 0.1 0.4 0.0 0.0 0.0 0.0 0.0 0.0 0.0 0.0 0.0 0.0 0.0 0.0 0.0 0.0 0.0 0.0 0.0 0.0 0.0 0.0 0.0 0.0 0.0 0.0 0.0 0.0 0.0 0.0 0.0 0.0
0.4 0.1 0.0 0.0 0.0 0.0 0.0 0.5 0.0 2.6 0.8 0.6 0.1 0.0 0.0 0.0 0.0 0.0 0.0 0.0 0.0 0.0 0.0 0.0 0.0 0.0 0.0 0.0 0.0 0.0 0.0 0.0 0.0 0.0 0.0 0.0 0.0 0.0 0.0 0.0 0.0 0.0 0.0 0.0
0.0 0.2 0.0 0.0 0.0 0.0 0.0 0.0 3.0 5.2 7.0 2.9 0.0 0.0 2.5 0.0 0.0 0.0 0.0 0.0 0.0 0.0 0.0 0.0 0.0 0.0 0.0 0.0 0.0 0.0 0.0 0.0 0.0 0.0 0.0 0.0 0.0 0.0 0.0 0.0 0.0 0.0 0.0 0.0
0.0 0.8 0.5 0.0 0.0 0.0 0.0 0.9 0.3 1.4 1.8 3.9 1.4 2.0 0.0 0.0 0.0 0.0 0.0 0.0 0.0 0.2 0.0 0.0 0.0 0.0 0.0 0.0 0.0 0.0 0.0 0.0 0.0 0.0 0.0 0.0 0.0 0.0 0.0 0.0 0.0 0.0 0.0 0.0
0.7 1.6 1.3 0.3 0.0 0.0 0.0 0.0 0.6 9.6 4.5 2.6 3.6 2.0 0.0 0.0 0.0 0.0 0.0 2.1 0.4 0.0 0.0 0.0 0.0 0.0 0.0 0.0 0.0 0.0 0.0 0.0 0.0 0.0 0.0 0.0 0.0 0.0 0.0 0.0 0.0 0.0 0.0 0.0
1.2 4.3 3.9 0.8 0.0 0.0 0.2 1.4 1.4 3.0 2.3 4.4 8.6 4.7 0.0 0.0 0.0 0.0 0.4 0.7 0.1 0.0 0.0 0.0 0.0 0.0 0.0 0.0 0.0 0.0 0.0 0.0 0.0 0.0 0.0 0.0 0.0 0.0 0.0 0.1 0.1 0.0 0.0 0.0
0.0 3.7 4.9 3.8 4.3 2.3 2.6 0.7 1.6 5.6 17.1 7.2 3.5 1.3 0.0 3.2 1.8 0.0 0.5 0.5 0.2 0.0 0.1 0.0 0.0 0.0 0.0 0.0 0.0 0.0 0.0 0.0 0.0 0.0 0.1 0.1 0.2 0.3 0.2 0.2 0.2 0.0 0.0 0.0
3.4 12.4 5.6 1.5 0.2 0.3 1.7 1.3 0.2 4.3 1.9 14.2 2.5 5.4 4.2 2.5 1.0 1.2 0.7 0.4 0.4 0.2 0.0 0.0 0.0 0.0 0.0 0.0 0.1 0.2 0.4 0.3 0.4 0.5 0.5 1.0 0.9 0.8 0.8 0.8 0.9 0.8 0.4 1.3
1.6 9.1 6.7 8.8 0.0 1.8 4.0 1.7 0.3 1.7 1.9 4.4 3.8 4.8 1.5 1.1 1.3 0.7 0.6 0.6 0.4 0.3 0.3 0.0 0.0 0.0 0.1 0.2 0.5 0.8 1.2 1.8 1.7 1.5 2.3 1.9 2.4 2.4 2.5 2.3 3.7 1.2 2.2 2.8
3.2 6.1 12.6 10.8 0.8 4.5 15.3 2.3 0.1 2.7 2.8 2.5 7.9 3.3 0.2 1.1 0.5 0.2 0.4 0.2 0.1 1.4 0.4 0.5 0.9 1.3 1.5 1.5 1.8 1.7 2.9 2.6 2.5 2.8 4.0 5.3 3.6 3.8 4.7 3.8 2.7 3.6 3.9 3.0
3.6 8.1 15.0 17.0 10.3 25.9 2.9 1.2 0.3 2.7 3.1 2.8 2.3 1.8 1.1 1.0 0.9 0.9 1.0 1.1 3.7 4.6 2.4 3.9 2.8 2.5 3.4 3.7 2.8 3.3 3.5 3.2 3.0 4.1 4.6 4.4 3.7 4.6 3.7 3.7 4.5 5.9 4.4 5.0
0.4 3.4 23.5 21.2 11.6 4.5 4.3 7.1 6.6 5.2 4.0 2.5 2.4 1.9 1.2 0.8 0.9 2.1 2.6 3.3 4.8 8.0 9.3 5.6 6.4 5.2 5.8 4.6 5.1 4.1 3.9 3.1 2.9 3.4 4.1 3.9 2.4 3.0 2.3 2.2 3.1 5.5 5.7 8.4
0.0 1.4 17.4 22.2 21.6 15.8 7.9 2.5 2.5 4.3 6.8 3.1 1.6 1.6 1.9 1.7 4.9 8.3 5.3 4.5 4.3 5.9 9.3 11.6 9.6 6.4 5.3 5.3 5.8 7.3 8.1 5.2 5.4 7.0 5.7 4.7 5.4 3.8 2.6 3.0 3.9 7.3 5.0 6.6
5.3 10.6 18.8 15.0 23.1 7.2 3.1 4.1 3.7 5.9 8.7 3.3 1.9 1.9 2.0 2.2 1.5 10.7 9.9 9.4 8.2 7.9 7.4 6.9 9.2 10.4 6.5 5.7 5.5 5.2 7.6 9.4 12.9 12.6 13.4 11.0 9.2 7.6 8.9 13.5 7.9 12.1 12.4 11.4
3.6 13.8 18.7 18.8 23.9 15.1 2.4 3.6 3.6 5.2 3.3 2.0 2.0 2.3 1.3 5.4 9.6 12.0 10.8 8.7 6.5 5.5 4.3 2.8 2.6 4.6 7.7 7.1 6.1 5.1 5.0 7.6 6.8 8.5 8.7 9.3 10.4 10.8 11.5 11.3 14.0 16.0 17.4 17.7
13.2 9.2 9.7 8.6 7.8 3.7 2.9 3.4 3.3 2.1 1.6 1.8 1.8 5.2 7.1 9.4 13.2 13.7 11.4 8.5 6.2 4.3 2.7 1.8 1.2 1.6 2.7 3.1 4.4 5.6 6.7 5.3 5.0 4.8 5.3 7.1 7.3 7.9 8.8 9.3 9.9 9.7 9.0 10.2
5.8 3.1 7.0 5.1 3.4 1.7 1.9 1.7 1.8 1.4 1.8 2.3 2.5 3.3 13.1 13.8 14.1 12.2 8.5 6.3 4.6 3.2 2.7 1.5 1.3 1.5 1.5 1.5 2.3 3.0 4.0 4.5 4.8 4.5 4.4 4.5 4.9 6.0 6.5 7.1 8.2 8.5 8.5 7.8
3.2 3.1 3.9 3.2 2.2 0.8 1.0 1.3 1.5 2.5 1.5 2.8 4.4 6.1 6.3 6.0 6.1 5.2 4.6 3.6 2.4 2.0 1.5 0.7 0.6 0.5 0.8 0.5 0.8 1.4 1.5 1.6 1.9 1.9 2.4 2.8 3.1 3.3 3.6 4.6 4.5 4.5 5.6 6.6
8.0 5.7 5.7 7.1 6.9 3.0 2.1 2.0 1.7 4.9 5.8 4.4 3.5 5.4 5.8 3.8 4.2 3.6 4.1 3.5 2.5 1.9 1.3 0.8 0.6 0.5 0.8 0.3 0.5 0.4 0.2 0.3 1.1 0.8 4.0 3.8 1.4 3.1 2.9 5.5 7.1 7.4 7.2 4.9